Location: Hains Lake
(37.8540°N, 99.8578°W)
Time: 12:29:09
(UTC+00:00)

STARLINK 1064 - Pass Details

Date: 11 December 2019
Orbit: 548 x 551 km, 53.0° (Epoch: 19 January)

Event Time Altitude Azimuth Distance (km) Brightness Sun altitude
Exits shadow 12:55:02 13° 299° (WNW) 1,680 5.4 -9.7°
Maximum altitude 12:58:37 46° 227° (SW) 763 4.2 -9.1°
Drops below altitude 10° 13:02:40 10° 154° (SSE) 1,853 7.1 -8.3°
Sets 13:04:57 0° 149° (SSE) 2,745 8.2 -7.9°
